This is the latest recevied weather packets stored in our database for station/object DG8CA-10. If no packets are shown the sender has not sent any weather packets the latest 1 day(s).
| Time | Temp. | Humidity | Pressure | Rain* | Wind** | Luminosity | Snow |
|---|---|---|---|---|---|---|---|
| 1778094023 | 19.44° C | 48% | 1012 hPa | - | - | - | - |
| 1778093122 | 19.44° C | 46% | 1012 hPa | - | - | - | - |
| 1778092221 | 19.44° C | 46% | 1012 hPa | - | - | - | - |
| 1778075101 | 18.89° C | 47% | 1010 hPa | - | - | - | - |
| 1778064288 | 18.33° C | 46% | 1010 hPa | - | - | - | - |
| 1778063387 | 18.33° C | 46% | 1010 hPa | - | - | - | - |
| 1778062486 | 18.33° C | 46% | 1010 hPa | - | - | - | - |
| 1778059783 | 18.33° C | 46% | 1009 hPa | - | - | - | - |
| 1778058882 | 17.78° C | 46% | 1009 hPa | - | - | - | - |
| 1778057981 | 17.78° C | 46% | 1009 hPa | - | - | - | - |
| 1778053475 | 16.11° C | 50% | 1009 hPa | - | - | - | - |
| 1778052574 | 16.11° C | 49% | 1009 hPa | - | - | - | - |
| 1778051673 | 16.67° C | 49% | 1009 hPa | - | - | - | - |
| 1778049871 | 16.67° C | 49% | 1009 hPa | - | - | - | - |
| 1778048970 | 16.67° C | 49% | 1008 hPa | - | - | - | - |
| 1778048069 | 17.22° C | 49% | 1008 hPa | - | - | - | - |
| 1778047168 | 19.44° C | 48% | 1008 hPa | - | - | - | - |
| 1778046267 | 20° C | 50% | 1008 hPa | - | - | - | - |
| 1778045366 | 20° C | 50% | 1008 hPa | - | - | - | - |
| 1778044465 | 20° C | 50% | 1008 hPa | - | - | - | - |
| 1778043564 | 20° C | 51% | 1008 hPa | - | - | - | - |
| 1778042663 | 20° C | 50% | 1008 hPa | - | - | - | - |
| 1778041762 | 20° C | 50% | 1008 hPa | - | - | - | - |
| 1778040861 | 20° C | 51% | 1008 hPa | - | - | - | - |
| 1778039960 | 20° C | 52% | 1008 hPa | - | - | - | - |
* Rain since midnight (hover to see other rain measurements)
** Current wind speed in m/s (hover to see current wind gust speed)